Wind_Speed
9 9 9 11 15 16 15 13 13 14 14 14 12 12 13 12 11 10 10 10 9 10 12 14 11 6 4 4 3 3 8 9 9 12 10 7 7 7 6 7 8 9 10 13 14 13 12 10 9 6 5 5 5 5 6 7 8 8 7 8 8 9 10 10 9 7 6 6 7 8 7 7 9 10 10 10 10 10 11 11 12 12 13 14 14
7 7 8 10 13 15 17 17 16 16 16 17 16 14 14 13 13 12 12 11 9 9 13 13 11 9 8 8 7 5 8 7 7 11 10 9 9 9 8 8 7 7 9 11 13 14 14 12 10 7 6 6 5 5 5 6 7 7 7 10 10 9 9 10 9 7 6 6 7 6 6 7 8 9 9 9 10 10 11 11 12 13 13 13 13
7 7 9 9 10 10 14 20 20 18 15 16 17 16 16 16 16 16 16 15 12 12 14 11 12 11 10 10 8 7 8 8 8 10 11 11 10 10 10 9 7 7 8 10 12 14 14 14 12 10 8 7 7 6 5 5 7 8 8 11 11 9 9 9 8 7 6 6 6 5 5 6 7 8 9 9 9 10 10 11 12 12 13 13 13
8 9 10 9 10 10 13 19 23 22 16 15 15 14 17 18 17 18 19 17 13 14 15 11 12 9 9 11 9 9 8 9 10 9 10 12 12 11 11 10 8 8 8 10 13 14 15 15 14 13 11 10 9 8 6 5 8 10 10 11 11 9 9 9 8 7 6 6 6 4 4 6 7 7 8 8 9 10 10 10 11 12 12 13 13
7 10 11 9 10 11 11 14 19 23 19 15 14 13 15 18 17 16 16 13 11 14 18 12 12 9 9 11 9 11 10 9 11 10 9 12 14 13 12 11 10 9 8 9 12 15 15 15 16 15 13 12 9 9 8 6 8 10 11 12 12 10 9 9 9 7 6 6 5 4 3 5 6 7 7 8 9 9 9 10 11 11 12 12 13
5 7 9 8 9 10 11 12 15 20 21 18 16 15 14 16 18 16 15 13 11 14 18 13 11 10 11 13 10 11 14 13 12 12 11 11 13 14 12 11 11 10 9 9 10 13 15 15 17 17 15 13 10 10 10 8 9 10 12 13 12 11 9 10 9 8 6 6 6 4 3 4 5 6 7 8 9 9 9 10 10 11 11 12 12
5 4 6 7 8 10 12 14 14 17 19 16 15 17 16 16 17 14 13 15 13 11 16 14 13 10 9 13 12 11 15 17 14 13 13 12 12 14 13 12 12 11 9 9 9 11 14 14 16 18 17 15 13 12 11 10 10 10 13 14 13 12 10 10 9 7 7 7 6 4 2 3 5 6 7 8 8 8 9 9 10 10 11 11 12
4 3 4 5 6 8 11 13 13 14 16 15 15 17 17 18 17 12 9 13 15 11 13 15 14 10 8 11 12 10 12 17 16 14 13 13 13 14 13 12 12 12 11 10 9 10 12 13 15 17 17 16 16 15 12 10 11 11 13 15 14 12 10 10 10 7 7 8 6 5 3 3 4 6 6 7 8 8 8 9 9 10 11 11 11
4 3 3 3 4 7 11 11 10 10 12 14 15 15 16 17 16 13 10 11 14 11 10 13 14 12 12 13 13 11 10 12 14 15 16 16 15 16 15 13 12 12 12 11 9 10 11 12 14 16 17 17 17 16 13 12 12 12 14 15 13 12 11 11 12 9 7 8 7 6 4 3 4 6 6 7 7 8 8 8 9 10 10 11 11
4 5 4 4 4 7 10 9 7 9 13 13 12 13 15 17 15 14 13 11 12 10 8 11 12 10 11 14 16 16 13 11 12 14 17 19 17 18 19 16 14 14 13 12 11 11 11 12 13 15 17 18 18 17 15 13 13 13 14 15 14 13 11 11 13 10 7 8 9 7 6 4 5 6 6 7 7 8 8 8 9 10 10 10 10
1 4 4 3 3 5 9 9 8 9 12 13 11 11 13 15 16 14 14 12 11 8 6 9 10 8 8 10 14 19 16 13 15 14 15 19 18 18 20 20 17 16 16 16 15 14 13 13 14 16 17 18 18 18 16 15 15 14 14 16 15 14 12 11 13 12 8 8 10 9 7 6 6 6 7 7 7 8 8 8 8 9 10 10 9
2 1 3 3 2 1 4 8 10 9 10 11 11 11 12 13 15 15 16 16 13 10 9 9 9 10 9 7 11 18 19 15 17 18 16 17 18 18 19 20 20 21 21 20 19 17 16 14 15 16 17 18 19 19 18 17 16 15 16 17 17 16 14 12 13 14 11 10 12 11 9 7 7 7 7 7 7 8 8 8 8 9 9 9 9
3 1 1 1 2 2 0 3 6 8 9 10 11 12 13 12 12 15 18 19 16 14 13 11 9 8 8 7 7 15 21 17 16 19 20 19 18 19 20 20 23 23 23 24 22 20 19 17 16 16 17 18 19 20 20 19 18 17 18 18 19 18 16 14 14 15 13 12 13 12 10 8 7 8 8 8 8 8 8 8 8 9 9 10 9
3 1 2 1 1 2 2 1 1 2 4 6 8 11 14 14 13 14 16 17 17 16 15 12 8 4 3 4 4 8 17 20 18 18 21 22 21 21 20 20 23 23 22 25 26 24 22 20 18 17 18 18 20 21 21 21 21 19 20 20 20 20 18 16 16 17 16 13 14 14 12 10 9 9 9 9 9 8 8 8 8 9 9 10 9
3 1 1 2 2 2 2 1 1 2 3 3 4 6 9 12 14 15 15 15 16 17 16 14 10 5 1 1 2 2 6 14 19 20 21 22 23 23 23 21 23 23 21 24 28 28 25 23 21 19 19 19 20 21 21 21 21 20 21 21 21 21 20 18 16 19 19 15 16 16 14 12 10 10 10 9 9 9 9 8 8 9 9 10 9
5 4 1 3 3 1 1 2 1 3 4 4 5 6 7 7 9 11 13 15 16 15 15 16 14 10 4 1 2 2 3 6 13 21 23 23 23 25 27 26 25 25 24 23 27 30 28 24 23 21 20 19 20 22 22 21 20 20 20 22 22 21 22 21 18 20 21 17 17 18 16 14 12 11 11 10 10 10 9 9 9 9 9 9 9
4 6 4 2 3 2 1 1 2 1 3 4 5 7 8 9 8 9 10 13 16 16 15 15 16 17 12 5 2 2 3 3 5 14 19 22 26 26 27 28 27 26 27 25 24 27 28 26 24 23 21 21 22 22 23 23 22 21 20 22 23 23 24 23 20 22 21 18 19 19 18 16 13 12 11 11 11 10 10 10 9 9 9 9 9
1 5 7 4 2 3 4 3 3 3 3 4 6 6 7 9 10 12 12 13 14 16 18 18 17 19 20 17 12 6 3 1 1 4 9 15 23 27 28 29 29 27 28 28 27 26 27 27 25 24 23 23 24 24 25 26 24 22 20 21 23 25 27 26 22 23 22 20 20 20 19 17 15 14 13 12 12 11 10 10 9 8 8 8 8
3 1 2 5 5 3 3 4 5 5 5 5 6 6 7 9 9 11 13 15 15 16 18 19 16 17 22 24 24 19 12 7 3 1 3 7 14 22 26 28 28 29 29 29 29 30 29 28 26 25 25 25 25 26 27 26 24 22 19 20 23 26 28 27 24 24 23 21 20 21 20 19 17 15 14 13 12 12 11 11 10 8 7 7 6
1 2 2 0 3 4 4 6 7 7 6 6 7 7 8 10 10 10 11 13 16 17 18 18 15 17 20 22 24 24 21 16 13 8 3 3 8 13 21 26 28 29 31 31 31 32 31 29 28 28 28 28 27 27 28 27 25 23 21 20 23 26 29 28 27 25 24 22 21 22 21 20 19 17 16 14 14 13 12 12 10 8 7 6 5
5 3 1 1 0 1 3 5 7 8 9 9 9 9 10 11 11 11 11 11 12 14 17 18 17 19 20 20 22 23 21 20 20 16 10 6 5 5 12 18 22 26 31 32 32 33 32 31 30 31 32 31 29 29 30 29 26 24 22 21 23 26 28 29 29 28 27 24 22 23 22 21 20 19 17 16 15 14 13 13 11 9 8 7 5
5 5 4 3 2 1 1 2 3 5 8 10 12 12 12 12 13 13 12 11 12 13 15 17 18 20 21 21 20 19 17 16 17 18 14 11 7 6 10 11 11 18 27 32 34 33 31 30 30 32 35 33 32 32 32 30 28 26 24 23 23 25 28 30 31 30 29 27 24 23 23 21 20 20 19 18 16 15 15 14 12 10 10 8 8
5 5 5 5 5 3 2 3 4 3 5 7 9 11 12 14 15 16 15 14 13 13 15 17 17 18 20 21 22 21 19 16 16 17 13 9 8 7 12 15 12 13 18 23 31 34 32 30 29 31 34 34 33 34 34 31 29 27 26 24 23 25 27 29 33 33 31 30 27 25 24 22 21 21 20 19 18 16 16 15 13 12 11 10 10
6 5 5 5 5 5 4 5 6 6 6 6 7 10 12 15 17 18 19 19 16 14 15 16 15 16 18 19 22 24 24 23 22 22 18 15 11 7 10 15 13 12 13 13 18 26 29 30 29 29 31 33 33 33 34 33 31 29 27 27 25 26 27 28 33 35 33 34 31 27 25 24 22 22 21 21 19 17 17 16 14 14 13 12 12
8 7 6 6 7 8 7 7 7 7 7 7 8 10 12 15 17 19 20 21 20 18 18 17 16 16 17 18 20 22 24 26 26 24 22 20 16 11 11 12 9 10 13 11 10 15 19 23 25 27 30 32 31 30 32 33 33 30 28 27 27 27 27 28 33 35 35 35 33 29 27 25 24 23 22 22 20 19 18 18 17 16 14 13 13
9 9 9 8 8 9 10 9 10 10 11 12 13 13 14 15 16 17 19 20 20 20 21 21 19 18 18 18 19 21 22 24 26 26 24 21 19 15 11 9 9 10 11 12 13 13 14 17 19 21 28 33 32 31 32 33 32 29 28 28 28 28 28 29 33 36 35 35 34 31 29 28 26 25 24 23 22 20 20 19 18 17 15 14 15
10 10 10 10 10 11 12 12 13 13 13 13 13 13 14 14 15 17 18 19 19 19 20 21 21 21 20 19 19 20 22 23 24 26 26 24 24 22 15 7 7 8 7 9 12 14 17 20 19 19 23 31 35 34 34 34 33 29 28 29 30 30 30 30 33 35 34 35 35 33 31 30 28 26 25 25 24 22 22 21 20 18 16 16 16
11 10 10 10 11 12 12 13 14 13 12 12 12 12 13 14 16 17 18 19 19 19 19 20 21 22 21 21 21 22 22 23 24 25 26 26 26 27 23 15 8 6 5 6 7 12 18 20 21 23 22 23 29 33 35 35 33 30 29 31 34 33 31 31 33 34 34 36 36 34 33 31 29 28 26 26 26 24 23 22 20 19 17 17 16
11 11 10 10 11 11 12 13 13 13 13 13 14 14 13 14 15 16 17 17 18 20 20 21 22 22 23 23 23 24 23 23 24 25 25 26 27 27 27 25 18 9 6 7 5 8 15 17 19 24 25 23 24 28 33 36 34 31 30 33 35 34 32 32 33 34 35 37 37 35 33 32 31 29 27 27 27 26 25 23 21 19 18 17 17
10 10 10 10 11 11 11 12 12 12 12 13 14 14 13 13 15 17 17 17 18 20 21 22 22 23 24 24 24 25 24 24 25 25 25 26 26 27 26 27 26 18 10 8 7 10 16 19 19 21 23 24 24 25 30 36 36 33 31 34 36 35 33 34 36 36 35 37 37 36 34 33 33 31 29 29 29 27 25 24 22 20 19 18 17
10 10 10 11 12 12 11 11 12 12 13 13 13 13 14 15 17 17 17 17 18 19 20 21 22 22 22 24 25 25 25 25 25 25 26 26 26 27 27 27 28 26 21 12 7 13 20 20 21 22 20 21 23 23 26 33 37 36 34 36 37 34 33 35 38 38 36 37 39 37 35 34 34 34 32 31 30 28 26 25 23 22 21 19 18
11 11 12 12 12 12 12 12 14 14 14 14 14 14 15 16 16 16 16 16 18 20 21 21 22 22 22 23 24 24 24 25 25 24 25 27 27 27 28 29 28 26 26 19 9 13 23 24 22 22 20 20 22 22 24 31 36 37 37 38 37 34 34 37 40 39 37 38 40 38 35 35 36 36 35 33 32 29 28 27 25 24 22 20 19
12 12 12 11 11 11 12 13 15 15 15 15 15 15 16 16 17 18 19 19 19 20 21 21 21 22 23 23 24 24 24 24 24 23 23 25 27 29 28 29 28 26 25 23 15 13 22 25 24 22 20 18 19 20 24 29 33 36 37 37 37 35 34 38 40 40 40 40 41 39 35 35 37 37 36 35 34 31 29 28 27 25 23 20 19
12 12 12 12 12 14 15 16 15 15 15 15 14 14 15 16 18 19 20 20 20 20 21 22 22 22 22 24 25 26 25 26 26 25 23 23 24 27 29 29 29 28 27 25 20 16 19 23 24 24 20 18 19 20 22 27 32 35 36 36 35 34 35 38 41 41 42 42 42 40 35 33 36 38 38 36 35 33 30 29 28 26 23 21 20
12 12 12 12 13 14 16 16 15 15 15 15 15 15 15 17 18 19 20 21 22 22 22 23 23 23 23 25 26 26 26 26 28 28 27 25 24 24 27 29 30 30 29 27 24 20 20 22 23 23 22 22 23 22 23 27 30 31 32 33 34 34 36 39 41 42 43 44 43 41 38 35 36 39 39 37 36 35 32 30 29 27 24 21 20
12 12 12 13 13 14 14 15 16 16 17 17 17 18 18 19 20 20 21 22 22 23 24 24 24 23 24 24 24 24 25 26 27 28 29 29 27 25 25 26 29 31 31 30 28 25 22 22 22 23 25 25 25 26 26 27 30 30 29 31 33 35 38 39 40 41 43 43 43 42 40 38 38 40 39 37 37 35 33 31 29 26 24 22 21
12 13 13 14 14 14 14 15 15 15 15 16 17 18 19 19 20 21 22 23 23 23 24 25 25 24 24 24 25 25 25 26 27 27 28 29 29 28 27 25 25 28 30 31 31 29 27 24 22 21 24 25 25 27 30 31 30 27 25 27 31 33 36 38 39 41 42 43 43 42 40 39 39 39 37 36 37 36 34 32 30 26 24 23 22
13 14 14 14 14 14 15 15 15 16 16 17 18 19 19 20 21 22 22 22 23 23 24 25 26 25 25 25 26 26 27 27 27 27 27 28 28 28 28 28 25 24 26 28 29 29 29 28 25 21 22 26 25 27 31 35 33 30 26 24 26 30 34 36 38 39 42 44 44 44 42 40 40 38 36 36 37 36 35 33 30 27 26 25 23
14 14 14 14 14 15 16 16 17 17 17 17 18 20 21 22 23 24 24 24 24 24 25 25 26 27 27 27 27 27 27 27 27 27 28 28 28 27 27 27 26 24 24 25 26 27 28 27 26 24 24 27 27 27 32 35 33 31 30 26 24 27 31 34 36 38 40 43 44 43 42 40 38 36 35 36 36 36 36 34 31 28 27 25 23
15 15 14 15 14 14 15 15 15 15 16 17 18 19 21 22 22 23 24 25 25 25 25 25 25 26 26 26 27 27 28 28 28 28 28 29 30 31 31 28 27 27 25 23 23 25 25 24 25 25 25 24 24 24 28 31 27 25 30 32 30 30 30 31 34 36 39 42 42 42 41 40 38 37 36 36 37 37 36 34 31 30 28 26 23
16 15 15 15 15 15 15 15 15 15 16 18 19 20 21 22 22 23 23 24 24 25 26 26 26 26 26 26 26 26 26 27 28 29 31 32 32 35 37 35 32 30 29 26 22 21 21 20 21 23 21 18 20 22 25 30 31 29 32 33 30 30 31 29 30 34 38 41 41 40 40 41 40 39 39 39 39 38 37 34 33 31 29 27 23
15 14 13 13 14 15 14 15 16 17 18 20 21 22 23 23 24 24 25 24 24 24 25 26 27 28 28 30 31 31 31 31 30 29 30 32 33 35 37 38 36 34 32 30 27 23 20 17 18 20 18 16 21 26 30 35 36 33 33 32 27 28 28 23 22 30 36 39 40 40 41 42 42 41 42 43 42 40 39 37 35 33 30 27 24
13 12 12 13 14 13 13 14 16 17 18 20 21 22 24 25 26 27 28 28 27 26 26 26 27 28 28 30 31 33 35 35 34 32 31 31 32 32 34 36 37 37 35 33 31 29 24 20 19 19 17 17 22 29 32 35 35 33 35 36 31 29 28 22 17 23 35 41 39 38 40 41 42 42 42 44 43 42 41 39 36 34 30 27 25
11 12 13 13 11 11 13 15 16 17 19 20 22 23 25 26 27 28 30 31 31 30 29 28 29 29 29 30 30 31 32 33 33 33 33 33 33 33 34 35 36 37 37 36 35 33 31 26 23 23 20 18 21 29 32 32 34 35 36 36 34 32 32 29 24 26 38 47 42 35 36 38 39 39 41 43 44 43 42 40 37 35 31 28 25
12 13 12 11 10 12 14 15 17 19 20 22 23 24 26 27 27 28 29 31 32 32 31 31 31 30 30 30 30 31 32 32 32 32 33 33 34 34 35 35 35 36 37 38 39 38 37 33 30 30 29 23 21 27 34 37 36 35 33 32 34 36 36 35 35 33 37 45 43 34 30 34 38 39 39 41 42 42 40 39 38 36 32 28 25
12 12 10 10 11 13 14 16 18 19 20 22 23 23 24 25 25 26 27 28 30 30 30 30 31 32 32 32 32 32 32 32 32 32 31 32 32 32 33 33 34 34 33 34 35 37 40 39 37 37 38 34 29 26 31 37 39 38 38 39 39 40 37 32 30 27 28 39 45 35 26 30 37 37 38 40 40 40 41 40 39 36 31 28 25
8 7 8 9 11 13 15 17 19 21 22 22 23 23 23 23 24 24 26 27 28 29 30 30 31 32 32 32 33 34 33 33 33 32 32 32 31 32 33 34 36 38 36 34 32 32 35 39 41 42 42 42 40 34 31 33 39 41 41 43 43 39 32 24 19 19 22 34 42 32 20 26 34 36 37 37 36 37 39 39 38 35 30 27 24
5 6 8 10 13 15 17 18 20 22 23 23 23 24 25 26 27 27 28 28 29 29 30 31 31 32 32 33 33 34 34 35 34 34 34 34 34 35 35 35 37 39 42 41 36 33 34 35 38 41 43 43 43 41 37 33 37 39 33 29 30 30 25 19 16 18 23 30 39 35 22 21 31 34 33 31 31 33 35 36 36 33 30 27 24
6 8 11 13 15 17 18 20 22 23 25 26 27 28 28 28 28 28 28 29 29 30 31 32 32 33 34 34 35 35 36 35 34 34 33 33 36 36 35 35 35 36 41 43 40 38 37 36 36 38 40 42 42 42 42 38 37 40 32 22 23 27 24 17 14 18 24 29 37 39 26 19 27 32 28 25 27 29 29 31 33 31 28 26 23
8 9 12 14 15 17 19 22 23 25 27 28 28 28 28 28 28 28 29 29 29 30 32 32 33 34 35 35 35 36 37 37 35 34 33 33 35 35 33 33 33 34 37 38 36 36 35 35 36 36 37 40 42 41 42 41 40 42 40 33 31 31 27 20 17 17 19 25 36 39 28 19 24 29 24 19 20 25 28 29 31 29 26 25 24
9 10 12 14 16 18 20 22 23 25 27 28 28 28 28 29 29 29 30 30 30 31 32 33 34 35 35 35 35 36 38 38 37 37 36 35 36 35 33 31 32 34 35 32 31 32 30 29 30 30 31 36 41 42 41 42 43 44 46 44 42 38 32 28 24 17 10 17 35 41 31 22 24 29 27 18 11 16 25 27 27 27 26 26 25
Wind_Direction
245 229 222 224 218 206 192 187 200 211 214 210 203 202 205 207 213 214 221 224 227 234 219 200 184 176 208 219 231 209 195 200 198 191 185 182 182 178 170 167 174 179 180 178 177 178 182 195 203 214 218 195 180 169 161 165 157 141 139 142 130 116 106 102 107 114 122 117 102 96 84 68 57 56 59 60 61 60 58 57 56 57 58 61 64
236 224 220 222 217 209 200 194 199 211 215 210 210 221 224 225 228 235 241 237 250 230 196 188 188 193 202 211 224 202 194 213 214 201 198 200 197 185 177 175 177 180 187 187 185 183 184 195 202 197 193 190 184 174 166 165 161 155 152 147 137 123 111 106 114 125 130 120 108 101 84 65 58 60 65 64 65 63 60 61 59 59 60 62 65
218 219 217 215 218 218 206 200 203 211 217 212 214 227 232 233 234 244 247 244 252 215 187 191 198 205 207 202 211 205 206 223 223 211 209 210 203 191 186 185 188 189 191 195 196 192 189 193 198 196 196 200 198 192 182 168 163 165 163 152 144 132 120 115 123 133 131 124 118 106 84 64 61 65 70 69 68 65 63 63 62 61 62 64 65
211 215 212 214 217 222 218 209 209 216 222 214 211 220 226 230 234 243 243 245 252 207 187 193 195 202 205 200 208 209 214 221 222 225 220 215 208 200 194 192 195 198 200 202 203 198 193 195 198 198 197 200 202 202 203 186 171 170 167 159 151 141 129 124 131 141 135 127 127 116 87 66 68 72 75 74 71 68 66 66 65 64 64 65 66
208 210 205 212 211 209 217 217 217 224 230 221 210 208 215 225 232 241 241 250 260 208 193 195 199 206 203 203 212 213 214 210 217 231 228 217 211 208 203 201 199 201 205 204 204 203 203 202 200 201 198 202 208 204 202 197 186 178 172 165 158 150 139 132 139 152 148 138 139 127 93 74 77 81 80 78 74 71 69 68 67 67 67 67 67
214 210 202 207 205 200 205 216 222 224 229 227 218 210 212 222 227 239 246 253 260 212 197 196 198 211 216 212 218 224 216 202 208 224 233 226 216 216 213 208 206 205 204 201 204 208 213 213 206 205 202 204 213 208 200 198 200 193 178 170 164 159 149 143 151 162 158 153 155 145 108 85 86 88 87 83 78 75 73 72 70 70 70 71 70
214 219 215 201 195 205 206 212 222 222 225 227 219 216 219 217 219 238 248 241 246 212 197 197 194 203 213 209 220 238 218 204 209 218 230 236 222 218 218 217 216 211 207 202 203 206 215 220 213 212 209 206 208 208 208 201 204 202 184 175 169 166 159 155 163 165 161 165 168 165 141 103 100 97 94 89 83 81 79 77 75 74 74 75 75
227 224 227 194 186 210 211 212 220 222 225 226 220 222 225 220 218 233 237 230 235 216 198 200 197 206 212 206 221 239 215 209 219 218 222 231 225 218 216 221 223 218 216 209 206 206 211 219 219 220 218 213 207 211 222 211 205 206 191 181 174 172 169 165 172 171 163 171 178 179 175 134 115 107 102 95 89 88 86 84 82 81 80 78 78
254 233 197 184 189 208 209 210 216 217 220 223 226 228 227 224 221 223 222 230 234 227 225 218 208 216 220 212 218 227 214 209 223 227 223 224 226 226 221 220 221 219 217 212 212 211 211 216 220 225 225 221 215 216 225 217 208 207 196 187 180 178 177 172 178 180 169 176 187 193 192 162 131 119 111 103 97 98 95 92 88 86 86 82 80
270 258 232 218 222 225 219 212 210 210 211 212 223 228 222 222 224 221 219 235 242 239 244 226 213 222 229 227 223 220 220 217 221 231 231 225 226 230 229 224 220 216 216 217 218 215 214 218 221 224 225 227 227 224 224 218 210 207 200 195 189 184 180 177 183 189 183 184 192 198 201 179 146 133 123 114 109 108 104 98 95 92 91 87 83
223 281 292 262 227 229 229 224 214 206 207 207 216 227 224 223 228 226 220 231 248 251 234 212 213 232 243 241 227 221 227 227 219 225 235 234 231 229 226 227 228 226 228 229 224 218 216 221 223 223 225 228 232 231 226 218 210 207 204 200 196 189 183 184 192 197 200 200 198 200 203 189 160 145 134 126 120 117 113 107 102 99 97 93 88
146 230 318 332 3 35 215 225 225 213 204 200 206 222 227 226 229 227 225 226 232 244 244 230 233 248 258 256 234 230 232 229 220 218 224 234 237 232 228 232 233 233 235 233 227 222 220 224 227 226 227 229 232 232 228 220 213 209 207 205 201 195 190 194 200 201 206 204 197 200 204 194 171 155 145 137 131 126 121 115 110 106 103 100 94
102 132 305 331 352 7 89 222 232 230 221 209 208 221 226 224 223 223 227 230 230 238 247 248 255 267 276 280 254 233 227 226 223 219 219 227 235 238 239 238 232 231 235 232 230 228 225 227 230 229 229 230 230 230 228 223 217 213 211 209 205 200 194 199 205 202 204 198 191 199 206 198 180 164 155 146 140 135 130 124 119 114 110 106 102
117 30 336 330 297 268 272 298 283 264 256 237 227 231 234 233 231 226 225 232 237 239 242 248 257 259 287 315 299 238 225 224 224 224 224 225 229 235 243 240 229 230 235 232 231 230 229 230 231 232 232 233 232 229 228 225 222 221 218 213 211 206 198 203 209 203 205 202 192 200 207 201 187 172 164 155 148 144 138 133 127 123 117 113 109
180 171 3 351 319 260 249 274 354 357 346 312 278 261 251 243 243 240 235 238 243 243 244 248 246 224 155 334 282 262 240 232 227 229 230 228 229 232 237 240 233 234 238 232 228 228 229 231 232 232 232 236 237 232 229 227 226 226 223 221 220 212 203 209 212 203 207 207 193 198 207 204 193 180 173 164 155 151 146 141 136 130 125 120 115
220 205 171 13 352 323 121 131 96 353 343 328 316 308 298 275 258 252 247 245 246 248 248 249 243 230 204 161 205 215 255 245 233 233 233 230 231 231 233 238 239 239 241 236 229 226 227 230 231 233 233 237 241 235 230 228 228 227 224 224 226 218 206 210 214 203 204 204 192 197 207 205 198 186 179 172 163 157 152 148 145 139 133 127 119
217 207 217 338 360 329 344 150 180 297 323 319 315 316 314 304 292 282 269 257 252 250 249 247 242 234 225 208 187 189 217 244 249 242 238 233 232 232 232 235 239 238 237 238 234 226 225 228 229 233 236 238 240 237 232 229 227 226 225 224 226 222 210 207 211 203 201 199 191 197 207 206 201 192 185 180 170 164 160 156 153 148 142 134 125
69 197 218 244 272 293 309 297 265 262 290 311 309 309 314 312 302 289 282 276 266 255 249 248 243 237 235 235 238 235 207 154 78 263 262 250 238 234 232 234 237 237 233 234 236 231 226 225 228 233 237 238 238 238 235 229 225 225 228 227 224 222 216 210 208 204 202 200 193 198 207 207 203 197 190 185 177 170 166 163 159 156 150 142 132
35 60 218 236 240 253 280 282 276 270 277 299 305 302 309 316 311 296 285 278 268 258 255 256 249 244 243 240 242 245 246 240 223 254 298 281 255 242 236 234 235 236 232 231 234 234 228 225 229 234 235 235 237 238 234 229 226 227 232 234 227 222 220 215 209 206 204 201 196 200 205 206 204 201 194 190 183 175 172 169 166 161 158 150 138
245 357 29 244 227 234 248 259 263 267 271 283 292 292 297 304 312 315 304 284 268 260 261 262 254 250 250 243 240 243 246 246 242 242 249 289 281 261 244 237 235 235 233 232 235 234 229 226 229 234 232 231 234 237 234 228 227 230 233 235 229 223 222 217 209 208 208 202 197 199 203 202 203 203 198 193 187 180 177 175 171 166 167 164 149
199 212 244 10 44 237 256 263 264 265 266 272 277 277 286 299 308 316 317 306 289 276 269 266 259 257 255 250 246 244 245 247 247 245 244 249 271 279 252 240 236 236 234 233 235 233 229 229 232 234 232 229 232 235 234 229 227 231 233 233 229 222 221 216 208 208 209 204 198 199 201 199 200 202 200 196 191 185 181 179 175 172 176 174 163
189 194 209 227 236 266 326 322 288 272 270 276 278 275 278 290 298 301 305 307 304 300 289 278 271 265 259 253 251 248 246 247 247 243 240 239 243 264 269 257 243 242 238 234 233 231 229 231 233 232 230 227 228 231 232 229 227 230 231 231 227 220 219 215 208 207 208 207 203 201 201 199 197 199 201 199 194 188 184 182 180 179 181 179 175
198 200 206 217 231 249 295 320 321 312 294 288 285 283 281 283 286 287 289 293 296 303 304 294 283 274 265 255 249 248 246 243 243 241 235 231 236 251 262 262 259 257 252 241 235 231 229 231 231 233 230 225 225 228 229 227 226 229 232 233 227 219 217 214 209 206 207 210 208 203 202 202 197 196 199 201 197 192 187 184 185 184 183 182 183
205 226 231 226 225 229 257 289 302 310 310 302 294 290 287 284 284 284 284 286 287 293 302 302 295 284 275 264 254 249 247 245 244 243 239 237 242 249 250 253 257 259 261 257 240 232 230 231 234 235 228 222 223 228 228 226 225 228 234 238 231 219 216 214 210 208 208 211 211 205 202 204 201 196 196 199 199 194 188 186 188 187 185 185 187
210 219 216 212 215 227 251 267 269 275 278 277 279 281 283 285 287 288 288 288 287 286 289 294 298 293 288 282 269 258 253 251 249 246 244 241 243 252 250 243 244 251 255 265 270 254 241 237 238 236 228 222 224 227 224 222 223 227 233 238 234 222 217 216 212 209 208 210 211 208 203 203 203 202 197 197 198 194 188 189 191 191 190 189 192
204 203 206 217 232 248 261 259 255 261 266 269 274 278 282 285 287 288 290 292 292 289 286 287 291 291 293 293 283 271 265 260 255 251 249 241 236 240 245 239 238 246 253 259 265 266 256 247 245 243 238 233 229 225 222 220 223 229 233 234 235 227 220 216 212 211 210 209 210 212 208 203 202 203 201 198 198 195 192 195 197 196 196 196 198
205 211 222 234 245 255 260 263 268 276 279 280 282 284 287 289 288 286 285 289 292 293 291 289 289 289 290 293 292 283 276 270 262 257 251 244 238 237 235 235 247 249 249 249 246 250 256 257 256 254 247 237 229 225 227 227 227 232 232 231 233 229 221 216 212 213 213 210 211 216 212 205 204 204 203 202 201 198 197 200 202 201 202 203 206
213 218 227 236 245 253 260 268 277 282 283 282 282 283 284 287 289 291 290 289 290 292 295 293 291 290 288 289 293 291 285 277 270 264 257 250 246 242 237 232 239 251 253 249 242 249 256 257 258 259 255 243 235 230 231 232 230 228 229 230 230 226 222 217 213 214 215 211 211 216 213 207 208 209 207 205 205 204 203 204 206 206 207 211 214
223 229 238 245 250 256 263 271 278 283 284 284 284 283 282 282 284 290 293 293 291 288 291 293 292 291 289 287 289 292 291 285 276 270 265 258 251 247 243 235 229 230 250 256 242 246 255 252 252 259 260 253 247 238 232 232 230 225 226 228 227 226 224 219 215 216 217 212 209 213 213 208 209 212 211 208 209 209 208 208 209 211 214 218 221
234 242 249 251 257 263 268 273 277 282 287 290 292 290 286 283 282 284 287 291 293 289 288 290 292 294 292 288 287 287 289 290 285 276 269 263 254 249 247 241 233 225 229 250 246 240 251 253 248 254 258 250 245 242 236 232 229 225 224 226 226 226 225 221 217 216 216 212 210 213 214 210 210 214 215 212 212 213 211 210 212 215 219 221 225
237 242 250 258 267 271 269 270 272 278 284 287 291 293 290 290 289 286 285 288 292 291 289 288 290 294 294 292 289 286 286 290 291 283 271 264 258 254 251 246 240 233 229 235 251 245 245 249 248 249 252 247 244 248 244 235 230 227 224 223 224 224 225 221 217 215 214 212 211 212 213 212 212 214 216 215 214 214 214 213 215 218 221 224 227
239 248 261 271 272 269 266 270 276 282 284 282 284 289 291 294 294 292 292 294 293 292 292 290 290 290 291 292 290 288 287 288 290 289 278 266 260 257 253 248 244 239 234 230 240 252 246 246 249 248 245 245 248 251 246 234 226 223 220 220 221 221 221 218 213 213 213 211 210 210 210 212 213 214 215 216 216 215 215 215 216 219 222 226 229
249 261 273 276 270 266 270 278 285 287 286 284 283 283 284 287 291 293 295 298 295 291 291 292 291 290 291 291 291 290 289 288 288 290 288 276 261 252 249 248 245 242 237 231 232 251 252 247 246 245 239 235 238 241 237 226 216 213 214 215 216 216 215 213 210 211 213 211 209 208 209 211 214 215 217 217 217 216 216 217 218 221 224 227 230
257 267 272 272 269 270 274 281 287 289 290 291 288 284 283 286 289 292 295 297 296 293 292 291 290 290 290 290 291 291 291 291 288 287 289 287 274 256 247 245 246 244 240 235 232 241 252 250 243 239 233 225 224 225 226 219 208 204 207 208 209 210 209 208 208 209 211 211 208 208 210 213 215 217 217 217 218 217 217 218 220 222 226 228 229
261 268 270 273 275 277 280 284 285 286 289 291 292 291 292 294 295 295 295 294 293 292 291 290 290 290 290 290 290 291 292 293 291 288 286 287 287 275 258 247 244 244 240 236 233 234 246 252 243 235 230 225 223 223 221 215 207 202 204 204 203 204 205 206 208 209 209 209 208 208 211 215 217 217 216 216 219 218 217 220 222 225 228 228 227
263 266 269 275 282 285 289 291 290 290 291 291 293 293 294 295 295 295 295 292 290 289 288 288 288 288 288 289 289 290 292 292 292 291 288 286 286 286 277 262 250 245 241 236 235 236 243 251 245 235 229 223 221 220 216 209 206 206 205 203 201 201 203 206 209 210 208 207 209 211 213 215 215 214 214 217 219 219 219 220 224 228 230 228 227
257 263 268 274 279 285 291 296 297 299 300 300 299 296 295 296 295 294 293 290 287 286 286 287 286 286 286 286 287 288 290 290 289 290 290 289 286 285 286 281 268 256 247 239 235 235 238 244 245 238 229 223 217 212 208 204 202 202 203 203 200 200 202 204 207 209 207 206 209 212 214 216 214 212 214 218 219 219 221 222 225 230 231 228 227
253 260 266 270 276 283 290 294 298 303 306 307 305 302 299 297 295 293 292 291 289 287 285 285 285 285 284 284 285 286 285 285 284 285 288 291 291 288 286 285 283 274 260 248 239 232 231 237 245 243 232 225 214 202 203 205 201 195 193 197 200 200 202 202 204 206 206 205 208 211 212 213 213 213 215 218 220 221 222 223 227 232 231 228 226
253 255 260 269 277 284 289 293 298 303 306 306 305 304 301 298 295 292 290 290 291 289 287 286 284 283 283 282 282 282 282 282 282 283 285 289 291 292 290 288 289 286 276 264 251 239 231 233 240 243 238 229 215 199 197 200 199 194 189 184 191 200 202 201 202 204 203 203 206 209 211 211 212 214 216 218 221 223 223 225 230 232 230 228 225
247 253 264 274 280 285 290 295 298 301 305 307 307 307 305 302 298 294 290 288 288 287 286 286 284 284 282 281 280 279 278 279 278 279 280 284 288 289 290 291 292 293 292 281 264 251 241 233 232 238 239 229 213 197 188 185 184 187 189 188 190 196 199 200 203 203 202 203 204 205 206 208 210 213 215 218 221 222 224 227 231 231 229 226 225
248 262 272 274 277 281 285 289 292 297 301 303 304 305 306 305 302 298 295 292 289 287 286 285 284 283 282 282 282 282 281 280 279 279 278 278 281 283 285 287 289 291 294 293 282 268 257 245 236 236 237 227 207 186 175 180 186 190 191 192 193 195 195 196 201 204 203 202 203 204 204 205 208 211 213 216 218 220 223 227 229 228 226 224 223
261 269 272 273 275 277 280 286 291 297 300 299 299 299 298 300 301 302 301 299 296 293 290 287 285 282 281 280 280 280 281 282 283 284 283 280 278 278 279 282 283 282 283 285 284 280 271 261 249 239 231 222 206 189 183 191 196 193 189 190 191 188 185 188 199 205 204 202 202 203 204 206 208 209 211 214 216 218 220 224 225 224 222 221 221
263 265 273 276 274 275 284 295 300 301 301 300 298 296 293 294 296 298 299 299 298 296 293 290 287 285 283 281 280 279 278 278 279 279 282 284 283 281 280 280 280 278 276 274 274 274 272 268 265 253 235 220 208 198 194 196 196 192 191 193 190 181 178 184 194 202 206 204 201 202 204 206 206 207 210 213 215 218 220 222 223 221 219 220 222
264 274 279 275 273 286 299 304 305 304 304 303 300 297 295 293 293 292 291 292 293 292 291 289 287 286 285 283 281 279 277 276 276 275 276 278 280 282 283 282 280 277 275 272 268 267 265 263 264 263 255 241 221 207 201 199 196 195 195 195 191 185 186 192 195 200 206 204 199 200 204 205 205 207 211 214 216 219 221 221 221 219 219 221 225
278 275 271 271 285 303 309 310 309 308 307 304 301 298 296 295 294 291 288 287 288 288 288 288 286 285 284 283 281 279 277 277 276 275 274 275 275 278 280 282 281 278 276 273 269 266 264 260 257 258 258 255 241 220 211 205 199 194 193 194 195 194 195 200 202 205 205 198 194 197 203 206 206 206 211 215 217 220 221 221 221 220 219 221 224
275 268 272 290 307 313 313 313 312 310 309 306 303 301 299 298 296 292 288 287 287 287 286 286 285 284 282 281 279 278 277 276 275 274 274 274 274 274 275 278 280 281 280 278 273 269 265 260 254 253 253 252 252 244 229 214 204 197 196 197 200 201 201 205 208 208 203 196 194 195 202 207 206 206 211 215 217 219 221 221 221 220 220 221 223
270 280 300 314 320 321 319 317 313 310 310 308 306 304 302 302 300 297 295 294 292 290 288 286 284 283 281 279 277 275 275 273 271 271 272 272 272 271 271 272 274 278 279 278 277 273 269 264 258 255 254 251 249 251 245 226 211 206 206 205 204 202 200 201 203 204 203 199 196 195 202 209 205 205 210 213 214 219 221 222 222 221 220 220 222
290 308 317 320 321 321 320 319 316 313 311 310 308 307 305 305 304 301 298 296 294 291 289 288 286 284 282 279 276 274 273 271 269 269 268 269 270 268 268 267 269 272 273 273 274 274 274 273 268 264 261 257 250 246 245 238 222 213 212 210 202 196 192 191 190 193 198 200 199 198 203 209 205 205 209 211 212 216 220 223 223 222 220 220 222
307 314 319 321 323 322 319 318 315 313 310 308 306 305 305 305 304 301 299 297 295 292 290 289 287 285 282 279 276 274 272 270 269 267 265 265 265 264 264 264 264 266 269 271 273 274 275 276 277 274 270 265 257 247 242 241 229 213 203 197 194 191 190 190 191 195 199 201 200 199 203 209 204 203 206 208 212 216 221 225 225 222 219 219 219
304 313 317 319 320 320 319 318 314 309 305 303 302 301 301 301 300 299 299 298 295 293 291 290 287 286 284 281 276 273 271 270 268 266 263 262 260 259 259 261 260 260 264 269 273 275 278 280 279 280 277 267 259 249 242 238 229 213 202 199 197 193 193 198 199 194 199 205 201 197 201 210 203 197 195 196 208 217 222 226 227 221 214 213 215
289 302 311 314 314 316 317 316 312 306 301 299 299 297 296 296 296 296 298 298 296 294 292 290 288 287 285 283 279 274 272 270 268 265 262 258 257 256 255 256 256 256 259 266 270 271 277 284 284 286 286 274 259 248 240 233 226 217 211 208 203 196 197 201 195 179 183 214 205 196 197 204 195 187 185 179 188 214 218 220 222 216 208 205 208
Height
825 826 827 828 830 832 833 835 836 837 838 839 839 839 839 839 839 840 841 842 842 844 845 846 847 848 849 849 849 850 850 850 851 851 851 852 852 853 853 853 852 852 852 852 853 855 855 855 855 855 855 855 854 854 855 855 855 855 856 857 857 857 857 858 858 859 859 858 858 858 858 858 858 857 857 856 855 855 854 854 853 852 852 851 850
824 825 826 826 828 831 832 833 835 836 837 839 839 839 839 839 839 839 840 841 842 843 844 845 846 847 848 848 849 850 851 850 850 851 851 851 852 852 853 852 852 852 852 852 852 854 854 855 855 855 855 855 855 855 855 855 855 855 856 856 857 857 857 858 858 859 859 859 859 858 858 858 858 857 857 856 855 855 854 854 853 853 852 852 851
823 824 824 825 828 829 830 831 833 835 837 838 839 839 838 838 838 839 839 840 841 842 843 844 845 846 847 847 848 849 850 850 850 850 851 851 851 852 852 852 852 852 852 852 852 852 853 854 854 855 855 855 855 855 855 855 855 855 856 856 857 857 857 858 858 859 859 859 859 859 858 858 858 858 857 856 855 855 854 854 854 853 852 852 851
822 823 824 825 827 829 830 831 832 834 836 837 838 838 838 838 838 838 838 839 841 842 842 843 844 845 846 847 847 848 849 850 850 849 850 851 851 851 851 851 852 852 852 852 852 852 852 853 854 854 855 855 855 855 855 855 855 855 856 856 857 857 857 858 858 858 858 859 859 859 858 858 858 858 857 856 856 855 854 854 854 853 853 852 852
821 822 823 825 827 829 830 831 832 833 835 836 837 837 837 837 837 837 838 838 840 841 841 842 843 843 844 845 846 847 848 849 850 849 849 850 850 850 851 851 851 851 852 852 852 852 852 853 853 854 854 855 855 855 855 855 855 855 855 856 856 857 857 857 858 858 858 858 859 858 858 858 858 858 857 857 856 855 855 854 855 854 853 852 852
821 821 822 823 826 828 829 829 830 831 833 835 836 836 836 837 836 837 837 837 839 840 840 840 841 842 842 843 844 845 846 847 848 848 848 849 850 850 850 850 850 850 851 851 852 852 852 853 853 853 854 854 854 855 855 855 855 855 855 855 856 856 857 857 857 857 858 858 858 858 858 858 858 858 857 857 856 855 855 855 855 854 854 853 852
821 821 821 823 825 826 827 827 828 829 831 832 834 835 835 835 836 836 836 837 838 839 839 839 840 840 840 841 843 844 845 846 847 847 847 847 848 849 849 849 850 850 850 850 851 851 852 852 853 853 853 854 854 854 854 855 855 854 855 855 855 856 856 857 857 857 857 857 858 858 858 858 858 857 857 857 856 856 855 855 855 855 854 853 853
819 820 821 823 825 826 826 826 827 829 830 831 832 834 834 834 834 835 835 836 837 838 838 838 838 839 839 840 841 842 843 845 845 846 847 846 846 847 848 848 849 849 849 850 850 851 851 852 852 852 852 853 853 853 854 854 854 854 854 854 855 856 856 856 857 857 857 857 857 857 857 857 857 857 857 856 856 856 855 855 855 855 854 854 853
818 820 822 823 825 826 825 826 827 828 829 829 831 833 833 834 834 834 834 835 835 836 837 837 837 837 838 839 839 840 841 843 844 845 845 845 845 845 845 846 847 848 848 849 849 849 850 850 851 851 852 852 852 853 853 853 853 853 854 854 855 855 855 856 856 857 857 857 857 857 857 857 857 857 857 856 856 856 856 855 855 855 855 854 854
818 820 822 824 826 826 825 825 827 828 829 829 830 832 832 832 833 833 833 834 834 835 836 836 837 837 837 838 838 839 839 840 842 843 844 844 844 844 843 844 845 845 846 846 847 847 848 849 849 850 850 851 852 852 853 853 853 853 853 854 854 855 855 855 856 856 856 856 857 857 857 856 856 856 856 856 856 856 856 856 856 855 855 855 855
819 819 820 822 824 826 825 825 826 827 828 828 828 829 831 831 832 833 833 833 833 834 835 835 836 836 836 837 837 837 838 838 839 841 842 842 843 843 843 842 842 843 843 844 844 845 845 846 847 848 848 849 850 851 851 852 852 853 853 853 854 854 855 855 855 856 856 856 856 856 856 856 856 856 856 856 856 856 856 856 856 855 855 855 855
821 820 820 820 822 824 825 825 825 825 826 827 826 827 828 830 831 832 832 831 832 833 834 835 835 835 835 836 836 836 836 837 837 838 839 840 841 842 842 842 841 841 841 841 842 843 843 844 844 845 846 847 848 849 850 850 851 852 852 852 853 853 854 854 854 855 855 855 855 856 856 856 856 856 856 856 856 856 856 856 856 855 855 855 855
822 821 821 821 821 822 824 825 825 825 825 826 826 826 826 828 829 830 831 830 830 831 832 833 834 834 834 834 833 833 835 835 836 836 836 837 838 839 840 840 840 840 839 839 840 840 841 842 842 843 844 845 845 846 848 849 849 850 851 851 851 852 853 853 853 854 854 855 855 855 855 855 855 855 856 856 856 856 856 856 856 855 855 855 855
822 821 822 822 822 822 823 824 824 824 824 825 825 826 826 827 828 829 829 829 829 829 830 832 833 834 833 833 833 832 833 834 834 834 834 834 836 836 837 838 838 838 839 838 838 838 839 839 840 841 842 843 843 844 845 847 848 848 849 850 850 851 851 852 852 852 853 854 854 854 855 855 855 855 855 855 856 856 856 856 856 855 855 855 855
821 821 821 822 822 822 823 823 824 824 824 824 824 825 825 826 827 827 827 828 828 828 829 831 833 833 833 834 834 833 833 832 832 832 832 832 833 834 834 835 835 836 837 837 836 836 836 837 838 839 840 840 841 842 843 844 845 846 847 848 849 849 850 851 851 851 852 853 853 853 854 854 854 854 854 855 855 855 856 856 856 856 855 854 854
821 821 821 821 821 822 822 823 823 823 824 824 824 824 825 826 826 826 826 827 828 828 829 830 831 832 833 833 833 834 834 832 830 829 829 830 830 831 832 832 833 834 834 834 834 834 834 835 835 836 837 838 839 840 841 842 843 844 845 846 847 848 849 850 850 850 851 851 852 852 853 853 853 853 854 854 854 855 855 855 855 856 855 854 854
821 822 821 821 821 821 822 822 823 823 824 824 824 824 824 825 825 825 825 826 826 827 828 828 829 830 831 831 832 833 832 830 829 828 827 828 828 828 829 829 830 831 831 831 832 832 832 832 833 834 835 835 836 837 838 839 840 841 843 844 845 846 847 848 849 849 850 850 851 851 852 852 852 853 853 853 854 854 854 855 855 855 855 855 854
821 822 822 821 822 821 822 822 823 823 824 824 824 824 824 824 824 824 824 825 825 826 826 827 827 827 828 828 829 830 828 828 829 828 826 825 825 826 826 827 828 828 829 829 830 830 830 830 831 832 833 833 834 835 835 836 838 839 840 841 843 844 845 847 848 848 849 850 850 851 851 851 852 852 852 852 853 853 854 854 855 855 855 855 854
821 822 822 822 822 822 822 822 822 823 823 824 824 824 824 824 825 824 824 824 824 824 824 825 826 826 825 826 826 827 827 827 828 829 828 826 823 824 824 824 826 826 826 826 827 827 827 828 828 829 830 831 831 832 832 833 835 836 837 839 840 841 843 845 846 847 847 848 850 850 850 851 851 851 851 852 852 853 853 854 854 855 855 855 855
821 822 822 822 822 822 822 822 822 822 822 822 823 823 823 823 823 823 823 823 823 823 823 824 825 824 824 824 824 825 826 826 826 827 829 827 824 823 822 822 823 823 823 824 824 824 825 825 826 827 827 828 829 829 830 831 832 833 835 836 837 839 840 842 844 846 846 847 848 849 850 850 850 850 850 850 851 852 852 853 853 854 854 855 854
821 821 822 822 822 822 822 822 822 822 822 822 822 822 822 822 822 822 822 822 823 823 822 822 823 823 823 823 823 823 824 824 824 825 826 827 825 822 820 820 820 820 820 820 821 821 822 823 823 824 825 825 826 827 827 829 830 831 832 833 835 836 838 840 842 844 845 846 847 849 849 849 849 849 849 849 850 851 851 852 852 853 854 854 854
821 821 821 821 822 822 822 822 822 822 822 821 821 821 821 821 821 821 821 821 821 821 821 821 821 821 821 822 821 821 821 821 822 823 823 824 824 822 820 819 818 817 817 818 818 819 819 820 820 821 821 822 824 824 824 826 827 828 829 830 832 833 835 837 839 841 843 844 846 848 849 849 849 848 848 848 849 849 850 851 851 852 852 853 854
820 820 821 821 821 822 822 822 822 822 822 821 821 821 821 820 820 819 819 820 820 820 820 820 820 819 819 820 820 819 819 819 819 820 821 821 821 820 819 818 817 816 815 815 816 816 817 817 817 818 818 819 821 821 822 823 824 825 826 827 828 830 832 833 836 838 840 842 844 846 848 848 848 848 848 848 848 848 849 849 850 851 851 852 853
819 819 820 820 821 821 821 821 821 821 821 821 821 820 820 820 819 819 818 818 819 819 818 818 818 818 817 818 818 818 817 817 817 818 818 818 819 818 817 817 816 814 814 814 814 815 815 815 815 815 815 816 818 818 819 820 821 822 823 824 825 827 829 830 832 834 837 839 841 844 846 847 847 848 847 847 847 847 848 848 849 849 850 851 852
818 819 819 819 820 820 820 820 820 820 820 821 821 820 820 819 818 818 817 817 817 818 817 817 817 817 817 816 816 816 816 815 815 815 815 816 817 816 815 815 815 813 813 813 813 814 813 813 813 813 814 814 814 815 816 818 819 819 820 821 822 824 826 828 829 831 834 836 839 841 844 845 846 847 847 847 847 847 847 848 848 848 849 850 851
817 818 818 819 819 819 819 819 820 820 820 820 819 819 819 818 818 817 816 816 816 816 816 816 816 816 815 815 815 815 814 814 814 813 813 814 815 814 813 814 813 812 811 812 812 813 812 811 811 812 812 811 811 812 812 814 815 816 817 818 820 822 824 825 827 829 831 834 837 839 841 843 845 846 847 847 846 846 846 847 847 847 848 849 850
816 817 817 818 818 818 818 818 819 819 819 819 819 818 818 818 817 816 816 815 815 815 814 814 814 814 814 813 813 813 812 812 811 811 811 811 811 811 811 812 812 811 810 810 811 810 809 809 809 809 810 809 809 809 809 810 812 813 815 816 817 819 820 823 825 827 829 832 835 837 839 841 843 844 845 846 846 845 845 846 846 846 847 848 848
815 815 816 816 817 817 817 817 817 817 817 817 818 818 818 817 817 816 815 815 814 813 813 812 812 811 811 811 811 810 810 809 809 808 808 808 808 808 808 809 812 811 809 808 808 806 806 806 806 807 808 808 807 807 807 807 808 810 811 812 813 815 817 819 822 824 826 829 832 835 837 839 841 842 843 844 844 844 844 844 845 845 846 846 847
813 814 814 815 815 816 816 816 816 816 816 816 816 816 816 816 815 815 815 814 813 812 812 811 810 809 809 809 808 807 807 807 806 805 805 805 805 805 805 805 807 809 808 807 805 803 803 803 803 804 805 806 806 805 805 804 805 807 808 808 810 812 814 816 818 820 823 825 829 832 835 837 839 840 841 842 842 842 843 843 843 844 844 845 846
812 812 813 813 814 814 814 814 814 815 815 814 814 814 814 814 814 814 813 813 812 811 811 810 809 808 807 807 806 805 804 804 803 803 802 802 802 802 802 802 803 804 805 805 803 800 800 801 801 801 801 803 803 803 803 802 802 804 804 805 806 808 811 813 815 817 819 822 825 829 832 835 836 838 839 840 840 841 841 842 842 842 843 844 844
810 811 811 811 812 812 812 813 813 813 813 813 813 813 812 812 812 812 812 812 811 810 810 809 808 807 806 805 805 804 803 802 801 800 800 800 800 799 800 800 800 799 800 802 800 798 798 798 798 799 799 800 800 800 800 800 800 800 800 801 803 806 808 810 812 814 816 818 821 825 828 832 834 835 837 837 838 839 840 840 840 841 842 843 843
809 809 809 810 810 810 810 811 811 811 811 811 811 811 811 810 810 809 809 810 809 808 808 807 807 806 805 804 803 803 802 801 799 799 798 797 797 797 797 797 798 797 797 798 798 795 794 796 796 797 797 797 797 797 797 797 798 797 797 797 800 803 805 807 809 812 814 816 818 821 824 828 831 832 834 835 836 837 837 838 839 839 840 841 842
807 807 808 808 808 808 808 808 808 809 809 809 809 809 808 808 808 808 807 807 807 806 806 806 805 805 804 803 802 801 801 800 798 797 796 795 795 794 794 794 794 795 795 795 795 793 791 793 795 795 795 794 794 794 794 794 795 794 794 795 797 800 802 804 807 810 811 814 816 818 821 824 827 829 831 833 834 834 835 836 837 838 839 840 840
805 805 806 806 806 806 806 806 806 806 807 806 807 807 806 806 806 805 805 805 805 804 804 803 803 803 802 801 800 799 799 798 796 796 795 794 793 792 791 791 791 791 792 792 793 791 789 789 792 792 793 792 791 792 793 793 793 792 791 793 795 797 799 801 804 806 809 811 814 816 819 820 823 826 828 829 831 832 833 834 835 836 837 838 838
803 804 804 804 804 804 804 804 804 804 805 805 805 805 804 804 803 803 803 803 803 802 802 801 801 801 800 799 798 797 797 796 794 794 793 792 792 790 789 788 787 787 788 789 790 789 786 786 788 789 790 790 789 790 791 792 792 792 791 792 793 794 796 799 801 803 805 808 811 814 816 818 820 822 825 827 828 830 831 832 833 834 835 836 836
801 802 802 802 802 802 802 802 802 802 803 802 803 803 802 802 802 801 801 801 801 800 800 799 799 799 798 797 796 795 795 794 793 792 791 790 790 789 787 786 785 784 784 785 785 785 784 784 784 785 786 786 787 787 788 790 791 792 792 792 792 792 794 796 798 800 803 807 810 812 814 815 817 820 822 825 826 828 829 830 831 832 833 834 834
800 800 800 800 801 801 801 801 801 801 800 800 800 800 800 800 799 799 799 799 798 798 797 797 796 796 796 795 794 794 793 792 791 790 789 788 787 787 786 785 784 783 782 781 781 781 782 781 781 781 782 782 783 783 784 785 788 790 792 792 792 791 792 794 796 798 801 804 807 809 811 813 815 817 820 822 824 826 827 828 829 831 831 832 833
798 798 798 799 799 799 799 799 799 799 799 799 798 798 798 798 797 797 797 796 796 795 795 794 794 794 793 793 792 792 791 790 789 788 787 786 785 784 784 783 782 782 780 779 778 777 777 777 777 778 779 779 778 779 780 781 783 785 788 791 792 792 791 792 794 796 799 802 804 806 808 809 812 815 817 820 822 824 825 826 828 829 829 830 831
796 797 797 797 797 797 797 797 797 797 797 797 797 796 796 795 795 795 794 794 793 793 792 791 791 791 790 790 790 789 789 788 787 787 786 785 783 782 782 781 781 780 778 777 776 775 774 773 773 774 775 775 774 774 775 777 780 782 784 787 790 791 790 789 791 794 797 799 801 803 805 807 810 813 815 817 819 821 822 824 825 826 827 828 829
794 795 795 795 795 796 795 795 795 795 795 795 795 795 794 793 793 792 791 791 790 790 789 788 788 787 787 786 786 786 786 785 785 785 784 784 782 780 779 780 779 778 777 775 774 773 771 770 769 769 770 771 771 771 773 775 778 780 780 781 783 785 787 788 789 792 795 797 799 801 803 805 808 810 812 815 816 818 820 822 823 824 825 826 827
793 793 793 794 794 794 794 793 793 793 793 793 793 793 792 792 791 790 789 789 788 787 786 785 785 784 784 783 782 782 782 782 782 782 781 782 781 779 777 777 777 777 775 774 773 771 770 768 767 766 767 768 769 769 771 772 772 774 776 779 780 781 785 788 789 790 792 795 797 799 800 802 804 806 808 810 812 815 817 818 819 821 822 824 825
791 792 792 792 792 792 792 791 791 791 791 791 791 791 791 790 789 788 787 786 785 784 783 782 781 781 780 780 779 779 779 778 778 778 778 778 778 778 776 775 775 775 774 773 771 770 769 767 765 764 764 764 765 766 766 766 768 770 773 776 778 779 783 786 788 789 790 792 794 795 797 799 800 801 804 806 808 810 812 813 815 817 819 821 823
790 790 790 790 790 790 790 789 789 789 789 789 789 789 789 788 787 786 784 783 782 781 780 779 778 777 777 776 775 775 774 774 774 774 774 774 773 773 773 772 772 772 771 770 769 768 768 766 764 763 761 760 761 763 763 763 765 767 768 771 773 776 779 781 783 784 785 787 790 792 793 794 795 797 799 802 804 806 807 809 811 814 816 819 821
789 789 789 789 788 788 788 788 788 787 787 787 786 786 786 785 785 783 782 780 779 778 777 776 775 774 773 772 772 771 770 770 770 770 770 770 769 769 768 767 767 766 766 766 765 764 764 764 762 761 759 759 759 759 759 760 761 763 764 766 769 771 773 773 774 774 775 778 784 788 789 790 792 794 796 798 801 803 805 807 809 811 814 817 819
788 787 787 787 787 787 786 786 786 785 785 784 784 783 783 782 781 780 778 777 775 774 773 772 771 770 769 769 768 766 766 766 766 765 765 765 765 765 764 762 761 760 760 760 760 759 759 760 759 757 756 758 757 756 756 756 757 759 762 764 765 766 766 766 766 767 768 772 779 784 787 788 789 790 792 794 798 800 803 805 806 808 811 814 816
786 786 786 785 785 785 785 784 784 783 782 782 781 781 780 779 778 776 775 773 771 770 769 768 767 766 765 765 763 762 762 762 761 761 761 761 761 760 759 758 756 755 754 753 753 753 753 753 753 751 752 754 754 753 755 755 754 755 756 758 759 760 761 762 764 767 769 772 776 781 783 783 785 787 788 790 794 797 799 802 803 806 809 812 814
785 785 785 784 784 784 783 782 781 780 780 779 778 778 777 776 775 773 771 770 768 766 765 764 763 762 761 760 759 757 757 757 757 758 757 757 757 755 754 753 752 750 749 748 748 748 747 747 746 745 746 748 749 750 752 753 752 752 752 751 752 756 760 763 766 768 770 773 775 778 779 780 782 784 784 787 791 794 796 799 801 804 807 810 812
784 784 783 783 782 782 781 780 779 778 777 776 776 775 774 773 771 769 767 765 764 762 760 759 758 757 756 755 754 753 752 751 752 753 753 754 752 750 749 748 747 746 742 741 743 743 743 742 741 740 740 741 743 745 747 748 749 752 754 755 756 758 761 764 766 767 769 772 774 775 777 779 781 782 783 786 790 792 794 796 799 802 806 808 810
782 782 782 781 781 780 779 778 777 775 774 773 773 771 770 769 768 766 764 761 759 757 755 755 753 751 751 750 749 747 746 745 746 747 749 749 747 745 744 742 742 740 737 736 738 738 738 738 737 736 735 735 736 739 741 743 744 747 751 755 757 759 759 761 763 764 764 766 769 772 776 777 778 781 784 787 788 790 792 794 797 800 804 806 808
781 781 780 780 779 778 777 776 774 773 771 770 769 768 767 766 764 762 760 757 755 753 751 749 748 746 744 744 743 742 740 740 741 742 743 743 741 740 739 738 736 734 732 733 735 733 733 733 732 731 730 730 731 733 734 737 739 741 743 747 751 755 756 757 758 761 763 763 764 769 774 774 775 780 785 788 789 789 790 792 795 798 801 804 806
780 779 778 777 776 775 774 773 771 770 767 766 765 764 762 762 760 759 757 754 751 749 747 744 742 740 738 737 736 736 735 734 735 736 737 738 736 734 735 734 730 726 727 732 732 731 730 729 727 726 725 725 726 727 729 731 733 733 735 738 742 746 749 752 754 758 760 759 759 764 769 770 773 777 781 784 787 787 787 789 792 795 798 801 804